Location: Olomouc
(49.5830°N, 17.2500°E)
Time: 13:07:58
(UTC+01:00)

ISS - Visible Passes

Search period start: 03 December 2022 00:00
Search period end: 13 December 2022 00:00
Orbit: 414 x 420 km, 51.6° (Epoch: 03 December)

Date Brightness Start Highest point End Pass type
(mag) Time Alt. Az. Time Alt. Az. Time Alt. Az.
03 Dec -2.8 17:53:02 10° WNW 17:56:14 43° SSW 17:57:24 30° SSE visible
04 Dec -3.3 17:04:52 10° WNW 17:08:11 62° SSW 17:11:29 10° SE visible
04 Dec -0.9 18:42:35 10° WSW 18:44:25 14° SW 18:44:45 14° SW visible
05 Dec -1.3 17:53:53 10° W 17:56:29 21° SW 17:59:04 10° SSE visible
06 Dec -1.8 17:05:28 10° W 17:08:27 31° SSW 17:11:27 10° SSE visible
08 Dec -0.6 17:06:32 10° WSW 17:08:29 15° SW 17:10:25 10° S visible
